sat.trackr.live / text

‹ back to catalog

STARLINK-34266

NORAD 65093 · 2025-167R

PAYLOAD ACTIVE UNKNOWN

§ Identity

Operator
Country
US
Launch date
2025-08-04
Launch site
AFETR
Launch vehicle
Mass (kg)
RCS (m²)

Purposes: comms

External: N2YO · Heavens-Above · Gunter

§ Orbital elements

Epoch: 2026-05-25T02:26:31.416864Z

Period
93.37 min
Inclination
53.1597°
Eccentricity
0.0001047
Mean motion
15.42178873 rev/d
Perigee alt
439.0 km
Apogee alt
440.4 km
Semi-major
6,817.8 km
B*
6.9999e-4
RAAN
29.2635°
Arg perigee
99.5889°
Mean anomaly
260.5235°
Rev number
4,521

§ Raw data

STARLINK-342661 65093U 25167R   26145.10175251  .00030188  00000+0  69999-3 0  99982 65093  53.1597  29.2635 0001047  99.5889 260.5235 15.42178873 45213

JSON: /api/v1/satellites/65093 · /tle

For live sub-satellite position, see the globe view (requires WebGL).

§ Visibility from observer

Set your observer location to see the next 7 days of passes ≥ 10°. The values pass through the URL so the page stays shareable.

No JS? Fill the form by hand. The geolocation button needs JavaScript.